Location: Kuffner-Sternwarte
(48.2130°N, 16.2960°E)
Time: 18:52:48
(UTC+02:00)

COROT - Pass Details

Date: 21 May 2017
Orbit: 600 x 890 km, 90.0° (Epoch: 24 September)

Event Time Altitude Azimuth Distance (km) Brightness Sun altitude
Rises 22:44:01 0° 353° (N) 3,234 10.5 -15.7°
Reaches altitude 10° 22:46:40 10° 343° (NNW) 2,253 9.7 -16.0°
Maximum altitude 22:50:54 29° 284° (WNW) 1,278 7.6 -16.3°
Drops below altitude 10° 22:54:51 10° 225° (SW) 2,086 8.1 -16.6°
Enters shadow 22:56:25 - 217° (SW) 2,649 8.6 -16.8°
